| time (UTC) | temp C | wind direction | speed KPH | gust KPH | rain 1hr cm | rain 24hr cm | rain mn cm | humidity % | barometer mb |
| 20260502130313 | 6 | 248 | 0.0 | 3.2 | 0.00 | 0.00 | 0.00 | 61 | 1016.9 |
| 20260502123813 | 4 | 248 | 0.0 | 3.2 | 0.00 | 0.00 | 0.00 | 69 | 1016.9 |
| 20260502123313 | 3 | 180 | 0.0 | 3.2 | 0.00 | 0.00 | 0.00 | 72 | 1016.9 |
| 20260502122813 | 3 | 203 | 0.0 | 3.2 | 0.00 | 0.00 | 0.00 | 73 | 1016.9 |
| 20260502122313 | 3 | 203 | 0.0 | 3.2 | 0.00 | 0.00 | 0.00 | 75 | 1016.9 |
| 20260502121814 | 3 | 203 | 0.0 | 0.0 | 0.00 | 0.00 | 0.00 | 75 | 1016.9 |
| 20260502121313 | 2 | 203 | 0.0 | 0.0 | 0.00 | 0.00 | 0.00 | 75 | 1016.9 |
| 20260502120813 | 2 | 203 | 0.0 | 0.0 | 0.00 | 0.00 | 0.00 | 75 | 1016.9 |
| 20260502120314 | 2 | 225 | 0.0 | 0.0 | 0.00 | 0.00 | 0.00 | 73 | 1016.9 |
| 20260502115814 | 2 | 203 | 0.0 | 0.0 | 0.00 | 0.00 | 0.00 | 72 | 1016.9 |
| 20260502115313 | 2 | 203 | 0.0 | 0.0 | 0.00 | 0.00 | 0.00 | 72 | 1016.9 |
| 20260502114814 | 2 | 203 | 0.0 | 0.0 | 0.00 | 0.00 | 0.00 | 72 | 1016.9 |
| 20260502114317 | 2 | 203 | 0.0 | 0.0 | 0.00 | 0.00 | 0.00 | 73 | 1016.9 |
| 20260502113813 | 2 | 203 | 0.0 | 0.0 | 0.00 | 0.00 | 0.00 | 71 | 1016.9 |
| 20260502113313 | 2 | 203 | 0.0 | 0.0 | 0.00 | 0.00 | 0.00 | 71 | 1016.9 |
| 20260502112813 | 2 | 203 | 0.0 | 0.0 | 0.00 | 0.00 | 0.00 | 71 | 1016.9 |
| 20260502112313 | 2 | 203 | 0.0 | 0.0 | 0.00 | 0.00 | 0.00 | 73 | 1016.6 |
| 20260502111813 | 3 | 203 | 0.0 | 0.0 | 0.00 | 0.00 | 0.00 | 71 | 1016.6 |
| 20260502111314 | 3 | 203 | 0.0 | 0.0 | 0.00 | 0.00 | 0.00 | 71 | 1016.6 |
| 20260502110814 | 3 | 203 | 0.0 | 0.0 | 0.00 | 0.00 | 0.00 | 71 | 1016.6 |
| 20260502110314 | 3 | 203 | 0.0 | 0.0 | 0.00 | 0.00 | 0.00 | 70 | 1016.6 |
| 20260502105814 | 3 | 203 | 0.0 | 0.0 | 0.00 | 0.00 | 0.00 | 70 | 1016.6 |
| 20260502105314 | 3 | 203 | 0.0 | 0.0 | 0.00 | 0.00 | 0.00 | 69 | 1016.6 |
| 20260502104818 | 3 | 203 | 0.0 | 0.0 | 0.00 | 0.00 | 0.00 | 67 | 1016.6 |
| 20260502104314 | 3 | 203 | 0.0 | 0.0 | 0.00 | 0.00 | 0.00 | 66 | 1016.6 |
| 20260502103814 | 3 | 203 | 0.0 | 0.0 | 0.00 | 0.00 | 0.00 | 67 | 1016.6 |
| 20260502103314 | 3 | 203 | 0.0 | 0.0 | 0.00 | 0.00 | 0.00 | 66 | 1016.6 |
| 20260502102813 | 3 | 203 | 0.0 | 0.0 | 0.00 | 0.00 | 0.00 | 66 | 1016.6 |
| 20260502102313 | 3 | 203 | 0.0 | 0.0 | 0.00 | 0.00 | 0.00 | 66 | 1016.6 |
| 20260502101813 | 3 | 158 | 0.0 | 3.2 | 0.00 | 0.00 | 0.00 | 66 | 1016.6 |
| 20260502101313 | 3 | 158 | 0.0 | 3.2 | 0.00 | 0.00 | 0.00 | 66 | 1016.6 |
| 20260502100813 | 4 | 180 | 0.0 | 3.2 | 0.00 | 0.00 | 0.00 | 65 | 1016.6 |
| 20260502100315 | 4 | 180 | 0.0 | 3.2 | 0.00 | 0.00 | 0.00 | 65 | 1016.6 |
| 20260502091313 | 4 | 203 | 0.0 | 3.2 | 0.00 | 0.00 | 0.00 | 64 | 1016.3 |
| 20260502090813 | 4 | 203 | 0.0 | 3.2 | 0.00 | 0.00 | 0.00 | 64 | 1016.3 |
| 20260502090313 | 4 | 180 | 0.0 | 3.2 | 0.00 | 0.00 | 0.00 | 64 | 1016.3 |
| 20260502071313 | 6 | 180 | 1.6 | 6.4 | 0.00 | 0.00 | 0.00 | 59 | 1016.9 |
| 20260502070813 | 6 | 270 | 4.8 | 6.4 | 0.00 | 0.00 | 0.00 | 59 | 1016.9 |
| 20260502070314 | 6 | 90 | 0.0 | 6.4 | 0.00 | 0.00 | 0.00 | 59 | 1016.9 |
| 20260502065813 | 6 | 270 | 6.4 | 6.4 | 0.00 | 0.00 | 0.00 | 58 | 1016.9 |
| 20260502065313 | 6 | 135 | 0.0 | 6.4 | 0.00 | 0.00 | 0.00 | 59 | 1016.9 |
| 20260502064815 | 6 | 248 | 3.2 | 6.4 | 0.00 | 0.00 | 0.00 | 59 | 1016.9 |
| 20260502064313 | 6 | 270 | 3.2 | 6.4 | 0.00 | 0.00 | 0.00 | 60 | 1016.9 |
| 20260502063813 | 6 | 113 | 0.0 | 6.4 | 0.00 | 0.00 | 0.00 | 59 | 1016.9 |
| 20260502063314 | 6 | 158 | 0.0 | 6.4 | 0.00 | 0.00 | 0.00 | 60 | 1016.9 |
| 20260502062813 | 6 | 113 | 0.0 | 6.4 | 0.00 | 0.00 | 0.00 | 61 | 1016.9 |
| 20260502062315 | 5 | 225 | 3.2 | 3.2 | 0.00 | 0.00 | 0.00 | 62 | 1016.9 |
| 20260502061815 | 6 | 180 | 0.0 | 1.6 | 0.00 | 0.00 | 0.00 | 63 | 1016.9 |
| 20260502061314 | 6 | 180 | 1.6 | 1.6 | 0.00 | 0.00 | 0.00 | 65 | 1016.9 |
| 20260502060814 | 6 | 203 | 0.0 | 0.0 | 0.00 | 0.00 | 0.00 | 65 | 1016.9 |
| 20260502060313 | 6 | 203 | 0.0 | 0.0 | 0.00 | 0.00 | 0.00 | 65 | 1016.9 |
| 20260502055814 | 6 | 203 | 0.0 | 0.0 | 0.00 | 0.00 | 0.00 | 66 | 1016.9 |
| 20260502055313 | 6 | 203 | 0.0 | 0.0 | 0.00 | 0.00 | 0.00 | 64 | 1016.9 |
| 20260502054813 | 6 | 180 | 0.0 | 0.0 | 0.00 | 0.00 | 0.00 | 63 | 1017.3 |
| 20260502054313 | 6 | 180 | 0.0 | 0.0 | 0.00 | 0.00 | 0.00 | 66 | 1017.3 |
| 20260502053814 | 5 | 203 | 0.0 | 0.0 | 0.00 | 0.00 | 0.00 | 64 | 1017.3 |
| 20260502053313 | 5 | 225 | 0.0 | 0.0 | 0.00 | 0.00 | 0.00 | 66 | 1017.3 |
| 20260502052813 | 5 | 225 | 0.0 | 0.0 | 0.00 | 0.00 | 0.00 | 65 | 1017.3 |
| 20260502052314 | 5 | 203 | 0.0 | 0.0 | 0.00 | 0.00 | 0.00 | 64 | 1017.3 |
| 20260502051814 | 5 | 203 | 0.0 | 0.0 | 0.00 | 0.00 | 0.00 | 63 | 1017.3 |
| 20260502051313 | 5 | 203 | 0.0 | 0.0 | 0.00 | 0.00 | 0.00 | 60 | 1016.9 |
| 20260502050815 | 5 | 203 | 0.0 | 0.0 | 0.00 | 0.00 | 0.00 | 58 | 1016.9 |
| 20260502050315 | 5 | 203 | 0.0 | 0.0 | 0.00 | 0.00 | 0.00 | 58 | 1016.9 |
| 20260502045813 | 5 | 203 | 0.0 | 0.0 | 0.00 | 0.00 | 0.00 | 57 | 1016.9 |
| 20260502045313 | 5 | 203 | 0.0 | 0.0 | 0.00 | 0.00 | 0.00 | 58 | 1016.9 |
| 20260502044813 | 5 | 203 | 0.0 | 0.0 | 0.00 | 0.00 | 0.00 | 58 | 1016.9 |
| 20260502044314 | 6 | 203 | 0.0 | 0.0 | 0.00 | 0.00 | 0.00 | 55 | 1016.9 |
| 20260502043813 | 6 | 203 | 0.0 | 0.0 | 0.00 | 0.00 | 0.00 | 55 | 1016.9 |
| 20260502043314 | 6 | 203 | 0.0 | 0.0 | 0.00 | 0.00 | 0.00 | 55 | 1016.9 |
| 20260502042814 | 6 | 203 | 0.0 | 0.0 | 0.00 | 0.00 | 0.00 | 56 | 1016.9 |
| 20260502042313 | 6 | 203 | 0.0 | 0.0 | 0.00 | 0.00 | 0.00 | 54 | 1016.9 |
| 20260502041814 | 6 | 203 | 0.0 | 0.0 | 0.00 | 0.00 | 0.00 | 56 | 1016.9 |
| 20260502041314 | 6 | 203 | 0.0 | 0.0 | 0.00 | 0.00 | 0.00 | 55 | 1016.9 |
| 20260502040813 | 6 | 203 | 0.0 | 0.0 | 0.00 | 0.00 | 0.00 | 54 | 1016.9 |
| 20260502040314 | 6 | 203 | 0.0 | 0.0 | 0.00 | 0.00 | 0.00 | 53 | 1016.9 |
| 20260502035814 | 6 | 203 | 0.0 | 0.0 | 0.00 | 0.00 | 0.00 | 53 | 1016.9 |
| 20260502035313 | 7 | 203 | 0.0 | 0.0 | 0.00 | 0.00 | 0.00 | 52 | 1016.9 |
| 20260502034813 | 7 | 203 | 0.0 | 0.0 | 0.00 | 0.00 | 0.00 | 55 | 1016.9 |
| 20260502034314 | 7 | 203 | 0.0 | 0.0 | 0.00 | 0.00 | 0.00 | 52 | 1016.9 |
| 20260502033814 | 7 | 203 | 0.0 | 0.0 | 0.00 | 0.00 | 0.00 | 53 | 1016.9 |
| 20260502033318 | 7 | 203 | 0.0 | 0.0 | 0.00 | 0.00 | 0.00 | 53 | 1017.3 |
| 20260502032813 | 7 | 225 | 0.0 | 0.0 | 0.00 | 0.00 | 0.00 | 51 | 1017.3 |
| 20260502032314 | 7 | 203 | 0.0 | 0.0 | 0.00 | 0.00 | 0.00 | 49 | 1017.3 |
| 20260502031814 | 7 | 203 | 0.0 | 1.6 | 0.00 | 0.00 | 0.00 | 48 | 1017.3 |
| 20260502031314 | 8 | 203 | 0.0 | 1.6 | 0.00 | 0.00 | 0.00 | 47 | 1016.9 |
| 20260502030813 | 8 | 203 | 0.0 | 1.6 | 0.00 | 0.00 | 0.00 | 48 | 1016.9 |
| 20260502030314 | 8 | 203 | 0.0 | 1.6 | 0.00 | 0.00 | 0.00 | 45 | 1016.9 |
| 20260502025813 | 8 | 203 | 0.0 | 1.6 | 0.00 | 0.00 | 0.00 | 47 | 1016.9 |
| 20260502025314 | 8 | 203 | 0.0 | 1.6 | 0.00 | 0.00 | 0.00 | 43 | 1016.9 |
| 20260502024813 | 8 | 180 | 0.0 | 3.2 | 0.00 | 0.00 | 0.00 | 42 | 1016.9 |
| 20260502024313 | 8 | 180 | 0.0 | 3.2 | 0.00 | 0.00 | 0.00 | 41 | 1016.9 |
| 20260502023813 | 9 | 113 | 0.0 | 4.8 | 0.00 | 0.00 | 0.00 | 41 | 1016.9 |
| 20260502023314 | 9 | 113 | 0.0 | 4.8 | 0.00 | 0.00 | 0.00 | 40 | 1016.9 |
| 20260502022813 | 9 | 113 | 0.0 | 4.8 | 0.00 | 0.00 | 0.00 | 40 | 1016.9 |
| 20260502022313 | 10 | 113 | 0.0 | 4.8 | 0.00 | 0.00 | 0.00 | 39 | 1016.9 |
| 20260502021813 | 10 | 135 | 1.6 | 4.8 | 0.00 | 0.00 | 0.00 | 38 | 1016.9 |
| 20260502021313 | 10 | 203 | 0.0 | 4.8 | 0.00 | 0.00 | 0.00 | 38 | 1016.6 |
| 20260502020814 | 10 | 180 | 0.0 | 4.8 | 0.00 | 0.00 | 0.00 | 36 | 1016.6 |
| 20260502020313 | 10 | 158 | 0.0 | 4.8 | 0.00 | 0.00 | 0.00 | 36 | 1016.6 |
| 20260502015813 | 10 | 203 | 0.0 | 4.8 | 0.00 | 0.00 | 0.00 | 36 | 1016.6 |
| 20260502015314 | 10 | 113 | 0.0 | 4.8 | 0.00 | 0.00 | 0.00 | 33 | 1016.6 |
| 20260502014813 | 10 | 203 | 0.0 | 4.8 | 0.00 | 0.00 | 0.00 | 33 | 1016.3 |
| 20260502014313 | 11 | 158 | 0.0 | 4.8 | 0.00 | 0.00 | 0.00 | 32 | 1016.3 |